StationID,Date,MaxTemp,MinTemp,Precipitation,Snowfall,SnowDepth
"CA004057202","1974-10-21",51.08,,0.00,0.00,
"CA004057202","1974-10-22",60.08,26.96,0.00,0.00,
"CA004057202","1974-10-23",66.92,33.08,0.00,0.00,
"CA004057202","1974-10-24",57.92,33.08,0.00,0.00,
"CA004057202","1974-10-25",64.04,30.92,0.00,0.00,
"CA004057202","1974-10-26",69.98,37.04,0.00,0.00,
"CA004057202","1974-10-27",60.98,30.92,0.00,0.00,
"CA004057202","1974-10-28",57.02,39.02,0.00,0.00,
"CA004057202","1974-10-29",62.06,33.98,0.00,0.00,
"CA004057202","1974-10-30",44.96,21.02,0.00,0.00,
"CA004057202","1974-10-31",44.96,21.02,0.00,0.00,
"CA004057202","1974-11-01",33.08,26.96,0.00,0.00,
"CA004057202","1974-11-02",35.06,19.94,0.00,0.00,
"CA004057202","1974-11-03",55.04,19.94,0.00,0.00,
"CA004057202","1974-11-04",55.04,26.06,0.00,0.00,
"CA004057202","1974-11-05",51.08,24.98,0.00,0.00,
"CA004057202","1974-11-06",53.06,24.98,0.00,0.00,
"CA004057202","1974-11-07",44.96,24.08,0.00,0.00,
"CA004057202","1974-11-08",41.00,33.08,5.00,5.00,
"CA004057202","1974-11-09",46.04,19.94,0.00,0.00,
"CA004057202","1974-11-10",33.08,23.00,0.00,0.00,
"CA004057202","1974-11-11",41.00,17.96,0.00,0.00,
"CA004057202","1974-11-12",28.94,19.04,0.00,0.00,
"CA004057202","1974-11-13",30.92,24.98,0.00,0.00,
"CA004057202","1974-11-14",32.00,24.98,0.00,0.00,
"CA004057202","1974-11-15",37.94,15.08,0.00,0.00,
"CA004057202","1974-11-16",46.04,21.92,0.00,0.00,
"CA004057202","1974-11-17",37.94,19.04,0.00,0.00,
"CA004057202","1974-11-18",33.08,21.02,0.00,0.00,
"CA004057202","1974-11-19",28.04,21.02,0.00,0.00,
"CA004057202","1974-11-20",37.94,12.02,0.00,0.00,
"CA004057202","1974-11-21",51.98,26.06,0.00,0.00,
"CA004057202","1974-11-22",26.06,19.94,0.00,0.00,
"CA004057202","1974-11-23",24.98,6.08,0.00,0.00,
"CA004057202","1974-11-24",32.00,8.96,0.00,0.00,
"CA004057202","1974-11-25",50.00,17.96,0.00,0.00,
"CA004057202","1974-11-26",33.98,26.96,0.00,0.00,
"CA004057202","1974-11-27",21.92,15.08,0.00,0.00,
"CA004057202","1974-11-28",17.96,-0.04,0.00,0.00,
"CA004057202","1974-11-29",28.04,5.00,0.00,0.00,
"CA004057202","1974-11-30",30.92,10.94,0.00,0.00,
"CA004057202","1974-12-01",33.08,15.98,0.00,0.00,
"CA004057202","1974-12-02",32.00,24.08,0.00,0.00,
"CA004057202","1974-12-03",33.98,21.02,0.00,0.00,
"CA004057202","1974-12-04",32.00,15.08,0.00,0.00,
"CA004057202","1974-12-05",35.96,23.00,0.00,0.00,
"CA004057202","1974-12-06",30.02,19.04,0.00,0.00,
"CA004057202","1974-12-07",28.94,-2.02,0.00,0.00,
"CA004057202","1974-12-08",44.06,10.94,0.00,0.00,
"CA004057202","1974-12-09",44.06,30.02,0.00,0.00,
"CA004057202","1974-12-10",39.92,19.04,0.00,0.00,
"CA004057202","1974-12-11",24.08,10.94,0.00,0.00,
"CA004057202","1974-12-12",17.96,15.98,0.00,0.00,
"CA004057202","1974-12-13",21.92,15.98,0.00,0.00,
"CA004057202","1974-12-14",21.02,17.96,0.00,0.00,
"CA004057202","1974-12-15",24.08,19.04,8.00,8.00,
"CA004057202","1974-12-16",24.98,21.02,0.00,0.00,
"CA004057202","1974-12-17",35.06,19.04,0.00,0.00,
"CA004057202","1974-12-18",24.08,8.96,0.00,0.00,
"CA004057202","1974-12-19",24.08,8.96,0.00,0.00,
"CA004057202","1974-12-20",26.96,6.98,0.00,0.00,
"CA004057202","1974-12-21",23.00,10.04,25.00,25.00,
"CA004057202","1974-12-22",17.06,10.94,3.00,3.00,
"CA004057202","1974-12-23",19.94,10.04,0.00,0.00,
"CA004057202","1974-12-24",32.00,3.02,0.00,0.00,
"CA004057202","1974-12-25",35.06,17.06,0.00,0.00,
"CA004057202","1974-12-26",28.94,21.02,0.00,0.00,
"CA004057202","1974-12-27",24.98,17.06,18.00,18.00,
"CA004057202","1974-12-28",23.00,12.92,0.00,0.00,
"CA004057202","1974-12-29",24.08,3.92,0.00,0.00,
"CA004057202","1974-12-30",30.92,14.00,0.00,0.00,
"CA004057202","1974-12-31",24.98,10.04,0.00,0.00,
"CA004057202","1975-01-01",33.98,17.06,0.00,0.00,
"CA004057202","1975-01-02",28.04,19.04,0.00,0.00,
"CA004057202","1975-01-03",26.06,10.04,0.00,0.00,
"CA004057202","1975-01-04",14.00,6.98,0.00,0.00,
"CA004057202","1975-01-05",17.06,3.02,0.00,0.00,
"CA004057202","1975-01-06",15.08,10.94,5.00,5.00,
"CA004057202","1975-01-07",14.00,1.04,41.00,41.00,
"CA004057202","1975-01-08",5.00,-2.92,114.00,114.00,
"CA004057202","1975-01-09",3.02,-2.92,13.00,13.00,
"CA004057202","1975-01-10",-16.06,-22.00,0.00,0.00,
"CA004057202","1975-01-11",-14.08,-29.02,0.00,0.00,
"CA004057202","1975-01-12",1.94,-22.00,8.00,8.00,
"CA004057202","1975-01-13",21.92,-7.96,0.00,0.00,
"CA004057202","1975-01-14",21.92,3.02,0.00,0.00,
"CA004057202","1975-01-15",12.02,3.02,0.00,0.00,
"CA004057202","1975-01-16",19.04,-2.02,0.00,0.00,
"CA004057202","1975-01-17",26.96,3.92,0.00,0.00,
"CA004057202","1975-01-18",21.92,3.92,0.00,0.00,
"CA004057202","1975-01-19",39.02,-5.08,0.00,0.00,
"CA004057202","1975-01-20",35.06,8.96,3.00,3.00,
"CA004057202","1975-01-21",24.98,-0.04,0.00,0.00,
"CA004057202","1975-01-22",26.06,8.96,0.00,0.00,
"CA004057202","1975-01-23",24.98,10.94,91.00,91.00,
"CA004057202","1975-01-24",26.96,12.92,109.00,109.00,
"CA004057202","1975-01-25",19.04,8.06,0.00,0.00,
"CA004057202","1975-01-26",14.00,-9.04,0.00,0.00,
"CA004057202","1975-01-27",15.98,3.02,0.00,0.00,
"CA004057202","1975-01-28",19.94,1.04,5.00,5.00,
"CA004057202","1975-01-29",1.04,-7.96,3.00,3.00,
"CA004057202","1975-01-30",3.92,-13.00,0.00,0.00,
"CA004057202","1975-01-31",5.00,-16.06,3.00,3.00,
"CA004057202","1975-02-01",1.94,-9.04,69.00,69.00,
"CA004057202","1975-02-02",3.02,-0.94,99.00,99.00,
"CA004057202","1975-02-03",-5.08,-13.00,0.00,0.00,
"CA004057202","1975-02-04",-11.02,-25.96,0.00,0.00,
"CA004057202","1975-02-05",3.02,-32.98,0.00,0.00,
"CA004057202","1975-02-06",6.08,-11.92,5.00,5.00,
"CA004057202","1975-02-07",-5.08,-9.94,0.00,0.00,
"CA004057202","1975-02-08",-5.98,-25.06,0.00,0.00,
"CA004057202","1975-02-09",-4.00,-11.92,0.00,0.00,
"CA004057202","1975-02-10",-2.92,-14.08,51.00,51.00,
"CA004057202","1975-02-11",-9.04,-16.06,0.00,0.00,
"CA004057202","1975-02-12",-5.08,-32.08,13.00,13.00,
"CA004057202","1975-02-13",1.04,-11.02,3.00,3.00,
"CA004057202","1975-02-14",3.92,-4.00,3.00,3.00,
"CA004057202","1975-02-15",10.04,-7.96,0.00,0.00,
"CA004057202","1975-02-16",17.06,-7.06,0.00,0.00,
"CA004057202","1975-02-17",23.00,-2.02,0.00,0.00,
"CA004057202","1975-02-18",26.06,-0.94,0.00,0.00,
"CA004057202","1975-02-19",28.04,12.02,0.00,0.00,
"CA004057202","1975-02-20",30.92,12.92,0.00,0.00,
"CA004057202","1975-02-21",24.08,14.00,0.00,0.00,
"CA004057202","1975-02-22",24.98,-2.02,0.00,0.00,
"CA004057202","1975-02-23",35.96,14.00,0.00,0.00,
"CA004057202","1975-02-24",33.08,23.00,0.00,0.00,
"CA004057202","1975-02-25",28.94,21.02,0.00,0.00,
"CA004057202","1975-02-26",24.08,-0.94,0.00,0.00,
"CA004057202","1975-02-27",17.06,-5.98,0.00,0.00,
"CA004057202","1975-02-28",15.08,-13.00,0.00,0.00,
"CA004057202","1975-03-01",19.04,-11.92,0.00,0.00,
"CA004057202","1975-03-02",19.04,-5.08,0.00,0.00,
"CA004057202","1975-03-03",28.04,8.96,0.00,0.00,
"CA004057202","1975-03-04",21.92,17.06,28.00,28.00,
"CA004057202","1975-03-05",19.94,3.02,0.00,0.00,
"CA004057202","1975-03-06",21.92,8.96,0.00,0.00,
"CA004057202","1975-03-07",3.02,-7.96,0.00,0.00,
"CA004057202","1975-03-08",3.02,-18.94,0.00,0.00,
"CA004057202","1975-03-09",6.98,-16.96,0.00,0.00,
"CA004057202","1975-03-10",12.02,-18.04,0.00,0.00,
"CA004057202","1975-03-11",12.92,3.92,0.00,0.00,
"CA004057202","1975-03-12",19.04,-13.00,0.00,0.00,
"CA004057202","1975-03-13",26.96,-2.02,0.00,0.00,
"CA004057202","1975-03-14",28.94,3.92,0.00,0.00,
"CA004057202","1975-03-15",33.08,8.06,0.00,0.00,
"CA004057202","1975-03-16",42.98,15.98,0.00,0.00,
"CA004057202","1975-03-17",35.06,26.06,0.00,0.00,
"CA004057202","1975-03-18",28.94,10.94,0.00,0.00,
"CA004057202","1975-03-19",24.98,15.98,8.00,8.00,
"CA004057202","1975-03-20",24.08,15.98,0.00,0.00,
"CA004057202","1975-03-21",24.98,10.94,0.00,0.00,
"CA004057202","1975-03-22",24.08,12.92,0.00,0.00,
"CA004057202","1975-03-23",15.08,3.92,0.00,0.00,
"CA004057202","1975-03-24",17.96,1.94,5.00,5.00,
"CA004057202","1975-03-25",23.00,3.92,0.00,0.00,
"CA004057202","1975-03-26",15.08,8.96,20.00,20.00,
"CA004057202","1975-03-27",19.94,5.00,0.00,0.00,
"CA004057202","1975-03-28",26.06,1.94,0.00,0.00,
"CA004057202","1975-03-29",19.94,10.94,0.00,0.00,
"CA004057202","1975-03-30",12.02,5.00,0.00,0.00,
"CA004057202","1975-03-31",12.92,5.00,0.00,0.00,
"CA004057202","1975-04-01",15.08,-11.02,0.00,0.00,
"CA004057202","1975-04-02",23.00,-7.06,0.00,0.00,
"CA004057202","1975-04-03",21.92,5.00,0.00,0.00,
"CA004057202","1975-04-04",21.92,5.00,76.00,76.00,
"CA004057202","1975-04-05",26.06,17.96,41.00,41.00,
"CA004057202","1975-04-06",28.94,19.04,20.00,20.00,
"CA004057202","1975-04-07",33.08,24.98,10.00,10.00,
"CA004057202","1975-04-08",32.00,28.04,0.00,0.00,
"CA004057202","1975-04-09",35.96,28.94,0.00,0.00,
"CA004057202","1975-04-10",41.00,26.06,0.00,0.00,
"CA004057202","1975-04-11",37.94,26.06,0.00,0.00,
"CA004057202","1975-04-12",44.96,21.02,0.00,0.00,
"CA004057202","1975-04-13",35.96,24.08,0.00,0.00,
"CA004057202","1975-04-14",44.06,24.08,0.00,0.00,
"CA004057202","1975-04-15",35.96,23.00,0.00,0.00,
"CA004057202","1975-04-16",39.92,32.00,10.00,0.00,
"CA004057202","1975-04-17",42.98,28.94,0.00,0.00,
"CA004057202","1975-04-18",44.96,28.04,0.00,0.00,
"CA004057202","1975-04-19",50.00,24.98,0.00,0.00,
"CA004057202","1975-04-20",44.06,33.08,0.00,0.00,
"CA004057202","1975-04-21",55.04,24.98,0.00,0.00,
"CA004057202","1975-04-22",55.04,28.94,0.00,0.00,
"CA004057202","1975-04-23",51.08,33.08,3.00,0.00,
"CA004057202","1975-04-24",60.98,35.96,0.00,0.00,
"CA004057202","1975-04-25",59.00,39.92,0.00,0.00,
"CA004057202","1975-04-26",55.04,44.06,28.00,0.00,
"CA004057202","1975-04-27",41.00,37.94,38.00,0.00,
"CA004057202","1975-04-28",41.00,35.96,94.00,0.00,
"CA004057202","1975-04-29",51.98,32.00,3.00,0.00,
"CA004057202","1975-04-30",39.92,33.08,8.00,8.00,
"CA004057202","1975-05-01",46.94,33.08,0.00,0.00,
"CA004057202","1975-05-02",50.00,33.08,0.00,0.00,
"CA004057202","1975-05-03",53.06,30.92,0.00,0.00,
"CA004057202","1975-05-04",50.00,35.06,0.00,0.00,
"CA004057202","1975-05-05",51.08,37.94,18.00,0.00,
"CA004057202","1975-05-06",62.06,42.98,0.00,0.00,
"CA004057202","1975-05-07",68.00,42.98,0.00,0.00,
"CA004057202","1975-05-08",69.08,44.06,0.00,0.00,
"CA004057202","1975-05-09",71.06,44.06,0.00,0.00,
"CA004057202","1975-05-10",73.04,42.08,152.00,0.00,
"CA004057202","1975-05-11",71.06,42.08,0.00,0.00,
"CA004057202","1975-05-12",75.02,42.08,0.00,0.00,
"CA004057202","1975-05-13",62.96,46.04,69.00,0.00,
"CA004057202","1975-05-14",66.02,37.94,0.00,0.00,
"CA004057202","1975-05-15",66.92,46.94,0.00,0.00,
"CA004057202","1975-05-16",60.98,44.06,0.00,0.00,
"CA004057202","1975-05-17",64.94,39.92,160.00,0.00,
"CA004057202","1975-05-18",69.08,41.00,30.00,0.00,
"CA004057202","1975-05-19",48.92,44.96,264.00,0.00,
"CA004057202","1975-05-20",50.00,37.04,0.00,0.00,
"CA004057202","1975-05-21",57.02,32.00,0.00,0.00,
"CA004057202","1975-05-22",62.06,37.04,5.00,0.00,
"CA004057202","1975-05-23",64.04,48.02,127.00,0.00,
"CA004057202","1975-05-24",57.92,42.98,97.00,0.00,
"CA004057202","1975-05-25",53.96,41.00,13.00,0.00,
"CA004057202","1975-05-26",62.96,37.04,18.00,0.00,
"CA004057202","1975-05-27",64.04,41.00,0.00,0.00,
"CA004057202","1975-05-28",53.06,39.02,15.00,0.00,
"CA004057202","1975-05-29",66.02,33.98,0.00,0.00,
"CA004057202","1975-05-30",62.06,48.92,0.00,0.00,
"CA004057202","1975-05-31",71.06,39.02,15.00,0.00,
"CA004057202","1975-06-01",71.96,42.08,0.00,0.00,
"CA004057202","1975-06-02",69.98,39.92,0.00,0.00,
"CA004057202","1975-06-03",,48.02,107.00,0.00,
"CA004057202","1975-06-04",60.98,46.94,94.00,0.00,
"CA004057202","1975-06-05",62.06,46.04,66.00,0.00,
"CA004057202","1975-06-06",73.04,48.02,33.00,0.00,
"CA004057202","1975-06-07",68.00,51.08,0.00,0.00,
"CA004057202","1975-06-08",66.92,44.06,0.00,0.00,
"CA004057202","1975-06-09",66.02,44.96,0.00,0.00,
"CA004057202","1975-06-10",73.04,46.94,0.00,0.00,
"CA004057202","1975-06-11",78.08,50.00,8.00,0.00,
"CA004057202","1975-06-12",71.96,53.96,5.00,0.00,
"CA004057202","1975-06-13",68.00,44.96,18.00,0.00,
"CA004057202","1975-06-14",64.94,51.08,8.00,0.00,
"CA004057202","1975-06-15",66.92,46.94,30.00,0.00,
"CA004057202","1975-06-16",69.98,50.00,0.00,0.00,
"CA004057202","1975-06-17",69.08,50.00,0.00,0.00,
"CA004057202","1975-06-18",73.04,48.92,0.00,0.00,
"CA004057202","1975-06-19",68.00,55.04,254.00,0.00,
"CA004057202","1975-06-20",69.08,50.00,5.00,0.00,
"CA004057202","1975-06-21",69.98,53.96,0.00,0.00,
"CA004057202","1975-06-22",77.00,50.00,0.00,0.00,
"CA004057202","1975-06-23",80.06,53.96,0.00,0.00,
"CA004057202","1975-06-24",80.06,60.98,132.00,0.00,
"CA004057202","1975-06-25",84.02,62.06,86.00,0.00,
"CA004057202","1975-06-26",64.04,55.94,183.00,0.00,
"CA004057202","1975-06-27",69.98,50.00,0.00,0.00,
"CA004057202","1975-06-28",69.98,51.98,0.00,0.00,
"CA004057202","1975-06-29",71.06,50.00,0.00,0.00,
"CA004057202","1975-06-30",77.00,51.08,0.00,0.00,
"CA004057202","1975-07-01",77.00,51.98,0.00,0.00,
"CA004057202","1975-07-02",84.02,57.02,0.00,0.00,
"CA004057202","1975-07-03",84.92,62.06,53.00,0.00,
"CA004057202","1975-07-04",82.94,62.96,5.00,0.00,
"CA004057202","1975-07-05",89.06,62.96,0.00,0.00,
"CA004057202","1975-07-06",91.04,66.02,0.00,0.00,
"CA004057202","1975-07-07",73.94,62.06,0.00,0.00,
"CA004057202","1975-07-08",78.08,53.96,0.00,0.00,
"CA004057202","1975-07-09",78.98,55.94,3.00,0.00,
"CA004057202","1975-07-10",78.98,48.02,0.00,0.00,
"CA004057202","1975-07-11",82.04,53.06,0.00,0.00,
"CA004057202","1975-07-12",87.08,55.94,0.00,0.00,
"CA004057202","1975-07-13",91.04,59.00,0.00,0.00,
"CA004057202","1975-07-14",86.00,66.92,0.00,0.00,
"CA004057202","1975-07-15",82.94,60.08,0.00,0.00,
"CA004057202","1975-07-16",80.96,64.94,0.00,0.00,
"CA004057202","1975-07-17",80.06,55.04,0.00,0.00,
"CA004057202","1975-07-18",71.06,60.08,51.00,0.00,
"CA004057202","1975-07-19",73.94,57.02,5.00,0.00,
"CA004057202","1975-07-20",82.04,51.98,20.00,0.00,
"CA004057202","1975-07-21",77.00,55.04,3.00,0.00,
"CA004057202","1975-07-22",71.96,53.96,36.00,0.00,
"CA004057202","1975-07-23",78.98,50.00,0.00,0.00,
"CA004057202","1975-07-24",84.02,51.98,0.00,0.00,
"CA004057202","1975-07-25",80.96,62.06,0.00,0.00,
"CA004057202","1975-07-26",82.04,53.96,0.00,0.00,
"CA004057202","1975-07-27",95.00,57.92,0.00,0.00,
"CA004057202","1975-07-28",87.08,62.96,0.00,0.00,
"CA004057202","1975-07-29",87.98,60.08,56.00,0.00,
"CA004057202","1975-07-30",71.96,59.00,0.00,0.00,
"CA004057202","1975-07-31",66.02,57.92,140.00,0.00,
"CA004057202","1975-08-01",66.92,55.04,5.00,0.00,
"CA004057202","1975-08-02",68.00,46.94,25.00,0.00,
"CA004057202","1975-08-03",68.00,50.00,13.00,0.00,
"CA004057202","1975-08-04",71.06,44.96,0.00,0.00,
"CA004057202","1975-08-05",78.98,51.08,0.00,0.00,
"CA004057202","1975-08-06",69.08,60.98,0.00,0.00,
"CA004057202","1975-08-07",69.08,37.94,10.00,0.00,
"CA004057202","1975-08-08",75.02,48.02,30.00,0.00,
"CA004057202","1975-08-09",71.96,51.98,0.00,0.00,
"CA004057202","1975-08-10",75.92,53.06,5.00,0.00,
"CA004057202","1975-08-11",75.92,51.08,,0.00,
"CA004057202","1975-08-12",,46.04,0.00,0.00,
"CA004057202","1975-08-13",62.96,,0.00,0.00,
"CA004057202","1975-08-14",66.02,37.94,5.00,0.00,
"CA004057202","1975-08-15",62.06,46.04,15.00,0.00,
"CA004057202","1975-08-16",64.04,39.92,0.00,0.00,
"CA004057202","1975-08-17",66.02,42.98,10.00,0.00,
"CA004057202","1975-08-18",57.02,51.08,5.00,0.00,
"CA004057202","1975-08-19",55.94,51.08,0.00,0.00,
"CA004057202","1975-08-20",62.06,51.98,0.00,0.00,
"CA004057202","1975-08-21",71.96,53.06,13.00,0.00,
"CA004057202","1975-08-22",78.08,59.00,10.00,0.00,
"CA004057202","1975-08-23",73.04,46.04,0.00,0.00,
"CA004057202","1975-08-24",66.02,46.94,5.00,0.00,
"CA004057202","1975-08-25",60.98,51.08,3.00,0.00,
"CA004057202","1975-08-26",64.94,50.00,0.00,0.00,
"CA004057202","1975-08-27",77.00,50.00,0.00,0.00,
"CA004057202","1975-08-28",80.06,55.04,104.00,0.00,
"CA004057202","1975-08-29",71.06,55.04,5.00,0.00,
"CA004057202","1975-08-30",71.96,50.00,0.00,0.00,
"CA004057202","1975-08-31",60.08,44.96,13.00,0.00,
"CA004057202","1975-09-01",,44.06,,0.00,
"CA004057202","1975-09-02",53.96,50.00,61.00,0.00,
"CA004057202","1975-09-03",66.92,44.96,0.00,0.00,
"CA004057202","1975-09-04",64.04,42.08,0.00,0.00,
"CA004057202","1975-09-05",64.94,39.92,0.00,0.00,
"CA004057202","1975-09-06",66.02,44.96,0.00,0.00,
"CA004057202","1975-09-07",62.06,37.94,3.00,0.00,
"CA004057202","1975-09-08",71.06,48.92,0.00,0.00,
"CA004057202","1975-09-09",64.94,41.00,3.00,0.00,
"CA004057202","1975-09-10",64.04,44.96,0.00,0.00,
"CA004057202","1975-09-11",57.02,32.00,0.00,0.00,
"CA004057202","1975-09-12",69.98,32.00,0.00,0.00,
"CA004057202","1975-09-13",78.08,42.08,0.00,0.00,
"CA004057202","1975-09-14",78.08,42.08,0.00,0.00,
"CA004057202","1975-09-15",82.04,46.94,0.00,0.00,
"CA004057202","1975-09-16",84.92,53.06,46.00,0.00,
"CA004057202","1975-09-17",55.94,48.02,23.00,0.00,
"CA004057202","1975-09-18",57.02,41.00,8.00,0.00,
"CA004057202","1975-09-19",51.08,37.04,0.00,0.00,
"CA004057202","1975-09-20",62.06,30.02,0.00,0.00,
"CA004057202","1975-09-21",66.92,37.94,0.00,0.00,
"CA004057202","1975-09-22",71.96,46.04,0.00,0.00,
"CA004057202","1975-09-23",71.96,37.04,0.00,0.00,
"CA004057202","1975-09-24",82.04,48.92,0.00,0.00,
"CA004057202","1975-09-25",80.06,44.96,0.00,0.00,
"CA004057202","1975-09-26",57.92,48.02,8.00,0.00,
"CA004057202","1975-09-27",60.98,46.04,0.00,0.00,
"CA004057202","1975-09-28",69.98,42.98,18.00,0.00,
"CA004057202","1975-09-29",53.06,46.04,0.00,0.00,
"CA004057202","1975-09-30",53.96,35.96,0.00,0.00,
"CA004057202","1975-10-01",71.06,37.04,0.00,0.00,
"CA004057202","1975-10-02",80.06,41.00,0.00,0.00,
"CA004057202","1975-10-03",78.98,46.04,0.00,0.00,
"CA004057202","1975-10-04",69.98,51.08,25.00,0.00,
"CA004057202","1975-10-05",62.96,39.02,0.00,0.00,
"CA004057202","1975-10-06",64.04,48.02,0.00,0.00,
"CA004057202","1975-10-07",44.96,24.98,0.00,0.00,
"CA004057202","1975-10-08",37.94,30.02,61.00,51.00,
"CA004057202","1975-10-09",44.96,30.02,10.00,0.00,
"CA004057202","1975-10-10",42.08,30.02,28.00,0.00,
"CA004057202","1975-10-11",42.98,37.04,5.00,0.00,
"CA004057202","1975-10-12",50.00,39.02,3.00,0.00,
"CA004057202","1975-10-13",48.02,32.00,0.00,0.00,
"CA004057202","1975-10-14",53.06,28.94,3.00,0.00,
"CA004057202","1975-10-15",51.98,33.98,10.00,0.00,
"CA004057202","1975-10-16",55.04,30.02,0.00,0.00,
"CA004057202","1975-10-17",68.00,41.00,0.00,0.00,
"CA004057202","1975-10-18",68.00,41.00,0.00,0.00,
"CA004057202","1975-10-19",57.02,33.08,0.00,0.00,
"CA004057202","1975-10-20",55.04,30.92,0.00,0.00,
"CA004057202","1975-10-21",48.92,26.96,0.00,0.00,
"CA004057202","1975-10-22",44.96,23.00,0.00,0.00,
"CA004057202","1975-10-23",48.02,24.98,0.00,0.00,
"CA004057202","1975-10-24",39.92,19.04,0.00,0.00,
"CA004057202","1975-10-25",,24.08,15.00,15.00,
"CA004057202","1975-10-26",,26.96,0.00,0.00,
"CA004057202","1975-10-27",30.92,21.02,0.00,0.00,
"CA004057202","1975-10-28",33.98,15.08,0.00,0.00,
"CA004057202","1975-10-29",44.96,23.00,0.00,0.00,
"CA004057202","1975-10-30",42.98,32.00,0.00,0.00,
"CA004057202","1975-10-31",41.00,24.98,0.00,0.00,
"CA004057202","1975-11-01",53.96,35.06,0.00,0.00,
"CA004057202","1975-11-02",48.02,24.98,0.00,0.00,
"CA004057202","1975-11-03",60.08,30.02,0.00,0.00,
"CA004057202","1975-11-04",66.92,35.06,0.00,0.00,
"CA004057202","1975-11-05",64.94,39.92,0.00,0.00,
"CA004057202","1975-11-06",42.98,37.94,0.00,0.00,
"CA004057202","1975-11-07",41.00,28.04,0.00,0.00,
"CA004057202","1975-11-08",39.92,21.92,0.00,0.00,
"CA004057202","1975-11-09",39.92,24.08,0.00,0.00,
"CA004057202","1975-11-10",35.06,10.94,0.00,0.00,
"CA004057202","1975-11-11",30.92,26.96,0.00,0.00,
"CA004057202","1975-11-12",30.92,15.98,0.00,0.00,
"CA004057202","1975-11-13",50.00,26.06,0.00,0.00,
"CA004057202","1975-11-14",53.96,33.98,0.00,0.00,
"CA004057202","1975-11-15",62.06,32.00,0.00,0.00,
"CA004057202","1975-11-16",46.94,30.02,0.00,0.00,
"CA004057202","1975-11-17",39.02,19.94,0.00,0.00,
"CA004057202","1975-11-18",35.06,12.92,0.00,0.00,
"CA004057202","1975-11-19",24.98,10.94,0.00,0.00,
"CA004057202","1975-11-20",26.96,5.00,0.00,0.00,
"CA004057202","1975-11-21",26.06,12.02,0.00,0.00,
"CA004057202","1975-11-22",15.08,8.06,8.00,8.00,
"CA004057202","1975-11-23",8.06,-0.04,0.00,0.00,
"CA004057202","1975-11-24",21.92,-2.92,38.00,38.00,
"CA004057202","1975-11-25",24.08,8.06,0.00,0.00,
"CA004057202","1975-11-26",19.04,15.08,23.00,23.00,
"CA004057202","1975-11-27",10.94,5.00,8.00,8.00,
"CA004057202","1975-11-28",8.06,5.00,0.00,0.00,
"CA004057202","1975-11-29",10.04,1.94,8.00,8.00,
"CA004057202","1975-11-30",8.06,-11.02,0.00,0.00,
"CA004057202","1975-12-01",6.08,-22.00,0.00,0.00,
"CA004057202","1975-12-02",15.98,-9.94,10.00,10.00,
"CA004057202","1975-12-03",15.98,5.00,0.00,0.00,
"CA004057202","1975-12-04",12.92,8.06,0.00,0.00,
"CA004057202","1975-12-05",10.04,-14.08,0.00,0.00,
"CA004057202","1975-12-06",21.02,-9.04,0.00,0.00,
"CA004057202","1975-12-07",26.06,3.02,0.00,0.00,
"CA004057202","1975-12-08",35.06,8.06,0.00,0.00,
"CA004057202","1975-12-09",37.04,19.94,0.00,0.00,
"CA004057202","1975-12-10",8.96,-5.98,0.00,0.00,
"CA004057202","1975-12-11",-7.96,-25.06,0.00,0.00,
"CA004057202","1975-12-12",-0.04,-20.92,15.00,15.00,
"CA004057202","1975-12-13",-9.94,-20.02,0.00,0.00,
"CA004057202","1975-12-14",5.00,-23.08,10.00,10.00,
"CA004057202","1975-12-15",1.94,-4.00,0.00,0.00,
"CA004057202","1975-12-16",-14.08,-23.08,0.00,0.00,
"CA004057202","1975-12-17",14.00,-29.02,0.00,0.00,
"CA004057202","1975-12-18",37.04,5.00,0.00,0.00,
"CA004057202","1975-12-19",37.94,24.98,0.00,0.00,
"CA004057202","1975-12-20",35.06,17.06,0.00,0.00,
"CA004057202","1975-12-21",24.98,6.08,0.00,0.00,
"CA004057202","1975-12-22",23.00,3.92,0.00,0.00,
"CA004057202","1975-12-23",23.00,3.92,0.00,0.00,
"CA004057202","1975-12-24",32.00,8.06,10.00,10.00,
"CA004057202","1975-12-25",35.96,21.02,0.00,0.00,
"CA004057202","1975-12-26",35.06,17.06,3.00,0.00,
"CA004057202","1975-12-27",35.96,17.06,0.00,0.00,
"CA004057202","1975-12-28",30.92,17.06,0.00,0.00,
"CA004057202","1975-12-29",28.94,15.08,0.00,0.00,
"CA004057202","1975-12-30",24.08,17.96,30.00,30.00,
"CA004057202","1975-12-31",12.02,8.96,25.00,25.00,
"CA004057202","1976-01-01",6.98,-7.96,5.00,5.00,
"CA004057202","1976-01-02",3.92,-7.06,0.00,0.00,
"CA004057202","1976-01-03",1.04,-27.04,8.00,8.00,
"CA004057202","1976-01-04",5.00,-14.98,5.00,5.00,
"CA004057202","1976-01-05",-11.02,-20.02,0.00,0.00,
"CA004057202","1976-01-06",-20.02,-25.06,0.00,0.00,
"CA004057202","1976-01-07",-18.04,-31.00,0.00,0.00,
"CA004057202","1976-01-08",-2.92,-34.06,0.00,0.00,
"CA004057202","1976-01-09",6.08,-18.94,0.00,0.00,
"CA004057202","1976-01-10",8.06,-4.00,0.00,0.00,
"CA004057202","1976-01-11",15.98,-2.92,0.00,0.00,
"CA004057202","1976-01-12",15.98,-2.92,0.00,0.00,
"CA004057202","1976-01-13",3.92,-2.02,0.00,0.00,
"CA004057202","1976-01-14",8.06,-9.04,0.00,0.00,
"CA004057202","1976-01-15",10.04,-7.06,0.00,0.00,
"CA004057202","1976-01-16",28.94,3.02,0.00,0.00,
"CA004057202","1976-01-17",39.02,21.02,0.00,0.00,
"CA004057202","1976-01-18",35.06,26.06,0.00,0.00,
"CA004057202","1976-01-19",33.98,-0.94,0.00,0.00,
"CA004057202","1976-01-20",35.96,23.00,0.00,0.00,
"CA004057202","1976-01-21",30.02,17.96,0.00,0.00,
"CA004057202","1976-01-22",32.00,21.02,0.00,0.00,
"CA004057202","1976-01-23",33.08,26.96,74.00,74.00,
"CA004057202","1976-01-24",10.04,6.98,10.00,10.00,
"CA004057202","1976-01-25",3.02,-11.92,0.00,0.00,
"CA004057202","1976-01-26",24.08,-16.96,0.00,0.00,
"CA004057202","1976-01-27",42.98,5.00,15.00,0.00,
"CA004057202","1976-01-28",35.06,21.92,0.00,0.00,
"CA004057202","1976-01-29",39.02,26.06,0.00,0.00,
"CA004057202","1976-01-30",39.02,23.00,0.00,0.00,
"CA004057202","1976-01-31",42.98,30.92,0.00,0.00,